Location: Hengforden
(52.3167°N, 6.1333°E)
Time: 16:13:35
(UTC+00:00)

Meteor 1-23 Rocket - Pass Details

Date: 14 June 2025
Orbit: 838 x 885 km, 81.3° (Epoch: 19 July)

Event Time Altitude Azimuth Distance (km) Brightness Sun altitude
Exits shadow 21:35:30 - 188° (S) 2,777 6.4 -9.9°
Reaches altitude 10° 21:36:20 10° 188° (S) 2,452 6.1 -10.0°
Maximum altitude 21:41:54 83° 101° (E) 858 4.2 -10.4°
Drops below altitude 10° 21:47:33 10° 14° (NNE) 2,492 7.5 -10.8°
Sets 21:50:00 0° 14° (NNE) 3,439 8.3 -10.9°
